Regional Weather Roundup
Issued by NWS

Home | Current Version | Previous Version | Graphics & Text | Print | Product List | Glossary On
Versions: 1 2 3 4 5 6 7 8 9 10 11 12 13 14 15 16 17 18 19 20 21 22 23 24 25 26 27 28 29 30 31 32 33 34 35 36 37 38 39 40 41 42 43 44 45 46 47 48 49 50
000
ASUS43 KIND 060409
RWRIN

WEATHER ROUNDUP FOR INDIANA
NATIONAL WEATHER SERVICE INDIANAPOLIS IN
1100 PM EST THU DEC 05 2019

NOTE: "FAIR" INDICATES FEW OR NO CLOUDS BELOW 12,000 FEET WITH NO
SIGNIFICANT WEATHER AND/OR OBSTRUCTIONS TO VISIBILITY.

* - STATION DOES NOT REPORT WEATHER SUCH AS PRECIPITATION OR FOG.

+ - STATION NOT QUALITY CONTROLLED BY THE NATIONAL WEATHER SERVICE.
    USE DATA WITH CAUTION...ESPECIALLY DEWPOINT AND RELATIVE
    HUMIDITY OBSERVATIONS.

INZ001>003-010>013-019-020-060500-
NORTHWEST INDIANA

CITY           SKY/WX    TMP DP  RH WIND       PRES   REMARKS
GARY /AIRPORT/ MOCLDY    46  32  57 S6        29.95S
KNOX *+        FAIR      41  32  70 S10       29.97S
LA PORTE +     FAIR      39  33  78 S5        29.96F WCI  36
MICHIGAN CITY+ FAIR      45  39  81 S10       29.96S
MONTICELLO +   FAIR      41  31  68 S6        29.98F
RENSSELAER +   CLOUDY    37  32  81 S7        29.97S WCI  32
VALPARAISO     MOCLDY    38  31  76 S5        29.96F WCI  34

$$

LMZ046-743>745-060500-
SOUTHERN LAKE MICHIGAN

STATION/POSITION TIME  TEMP    WIND        PRES    WAVE
                       AIR SEA DIR/SP/G            HT
                 (UTC) (F)     (DEG/KT/KT) (MB)    (FT)
MICHIGAN CITY    0340   44     180/ 13/ 18   N/A

$$

INZ004-005-014>016-021>024-060500-
NORTH CENTRAL INDIANA

CITY           SKY/WX    TMP DP  RH WIND       PRES   REMARKS
GOSHEN         FAIR      41  32  70 S10       29.97F
LOGANSPORT +   FAIR      34  32  93 S9        29.99F WCI  26
PERU/GRISSOM   MOCLDY    38  35  91 S9        29.98F WCI  31
PLYMOUTH *+    PTCLDY    41  30  65 S8G14     29.96F
ROCHESTER +    FAIR      41  32  70 S7        29.98F
SOUTH BEND     FAIR      42  32  67 S9        29.96F
WARSAW +       FAIR      41  32  70 S6        29.98F

$$

INZ006>009-017-018-025>027-060500-
NORTHEAST INDIANA

CITY           SKY/WX    TMP DP  RH WIND       PRES   REMARKS
ANGOLA *+        N/A     39  30  70 S7        29.97F WCI  34
AUBURN +       FAIR      41  32  70 S6        30.00F
FORT WAYNE     CLOUDY    35  29  78 S8        30.00F WCI  29
HUNTINGTON +   FAIR      37  28  70 S6        30.00F WCI  33
KENDALLVILLE + MOCLDY    41  30  64 S12       29.98F

$$

INZ028-029-035-036-043>045-051>053-060500-
WEST CENTRAL INDIANA

CITY           SKY/WX    TMP DP  RH WIND       PRES   REMARKS
CRAWFORDSVL +  CLOUDY    40  33  76 S7        30.00F WCI  35
GREENCASTLE +  CLOUDY    45  32  61 S5        30.02F
LAFAYETTE      CLOUDY    43  33  68 VRB5      29.99F
TERRE HAUTE    FAIR      48  35  60 S10       30.02S

$$

INZ030>032-037>040-046>048-054>057-064-065-060500-
CENTRAL INDIANA

CITY           SKY/WX    TMP DP  RH WIND       PRES   REMARKS
ANDERSON +     FAIR      40  30  67 S8        30.03F WCI  35
FRANKFORT +    CLOUDY    41  33  72 SW5       30.01F
INDIANAPOLIS   MOCLDY    42  32  67 S7        30.02F
-EAGLE CREEK   MOCLDY    37  30  75 CALM      30.01F
KOKOMO +       FAIR      37  32  82 S8        30.01S WCI  31
MARION +       FAIR      35  32  88 CALM      30.01F
MT COMFORT *+  FAIR      37  34  87 S6        30.03F WCI  33
SHELBYVILLE    FAIR      36  28  73 S8        30.03F WCI  30
ZIONSVILLE +   MOCLDY    36  33  90 S7        30.02S WCI  30

$$

INZ033-034-041-042-049-050-058-059-060500-
EAST CENTRAL INDIANA

CITY           SKY/WX    TMP DP  RH WIND       PRES   REMARKS
MUNCIE         FAIR      43  30  60 S8        30.01F
PORTLAND +     FAIR      39  27  60 S7        30.01F WCI  34
RICHMOND +     FAIR      32  32 100 S8        30.05S WCI  25

$$

INZ060-061-067>069-081>083-085>088-060500-
SOUTHWEST INDIANA

CITY           SKY/WX    TMP DP  RH WIND       PRES   REMARKS
EVANSVILLE     CLOUDY    48  33  56 CALM      30.05S
HUNTINGBURG +  FAIR      47  34  60 SE6       30.06S
WASHINGTON +   MOCLDY    43  36  75 S6        30.04S

$$

INZ062-063-066-070>080-084-089>092-060500-
SOUTH CENTRAL AND SOUTHEAST INDIANA

CITY           SKY/WX    TMP DP  RH WIND       PRES   REMARKS
BATESVILLE +   CLEAR     39  28  65 S5        30.05F WCI  36
BEDFORD +        N/A     45  28  53 S6        30.05S
BLOOMINGTON    CLOUDY    46  31  55 S6        30.03S
FRENCH LICK *+ FAIR      48  30  49 S5        30.06S
JEFFERSONVL +  FAIR      35  33  93 CALM      30.08S
MADISON *+     FAIR      36  32  87 CALM      30.09S
SEYMOUR +      CLOUDY    41  32  70 CALM      30.06S

$$




USA.gov is the U.S. government's official web portal to all federal, state and local government web resources and services.